Preview of NWS' New Version of Forecast
This preview is not operational and should not be used for support decisions.

Regional Weather Roundup (RWR)

Issued by National Weather Service (NWS)

                            
000
ASUS45 KBOI 182110
RWRID 

IDAHO REGIONAL WEATHER ROUNDUP
NATIONAL WEATHER SERVICE BOISE ID
300 PM MDT THU APR 18 2019

NOTE: "FAIR" INDICATES FEW OR NO CLOUDS BELOW 12000 FEET
WITH NO SIGNIFICANT WEATHER AND/OR OBSTRUCTIONS TO VISIBILITY

IDZ012-014-182200-
SOUTHWEST IDAHO

  
CITY           SKY/WX    TMP DP  RH WIND       PRES   REMARKS
BOISE          FAIR      70  38  31 N5        30.27F                  
CALDWELL       FAIR      68  43  40 CALM      30.27F                  
MOUNTAIN HOME  MOSUNNY   69  37  31 N8        30.27F                  
$$

IDZ016-017-182200-
SOUTHCENTRAL IDAHO

  
CITY           SKY/WX    TMP DP  RH WIND       PRES   REMARKS
BURLEY         FAIR      66  34  30 W7        30.30F                  
JEROME         FAIR      64  40  41 W8        30.31F                  
TWIN FALLS     FAIR      65  36  34 W6        30.32F                  
$$

IDZ019>023-182200-
SOUTHEAST IDAHO

  
CITY           SKY/WX    TMP DP  RH WIND       PRES   REMARKS
IDAHO FALLS    FAIR      61  31  32 SW9G18    30.32F                  
POCATELLO      FAIR      64  36  35 W15       30.32F                  
REXBURG        FAIR      61  31  32 SW8       30.31F                  
$$

IDZ006-010-011-018-031-032-182200-
CENTRAL IDAHO MOUNTAINS

  
CITY           SKY/WX    TMP DP  RH WIND       PRES   REMARKS
MCCALL         FAIR      52  26  36 S5        30.31F                  
STANLEY          N/A     55  26  32 N8        30.35F                  
SALMON         FAIR      63  32  31 VRB5      30.26F                  
CHALLIS        FAIR      67  29  24 E6        30.25F                  
$$

IDZ002-004-006-007-026-182200-
NORTHERN IDAHO

  
CITY           SKY/WX    TMP DP  RH WIND       PRES   REMARKS
LEWISTON       FAIR      70  46  42 CALM      30.19F                  
LOWELL           N/A     72  43  35 S3        30.19F                  
COEUR D'ALENE  CLOUDY    59  40  49 VRB3      30.21F                  
MULLAN PASS    CLOUDY    45  31  58 VRB6      30.26F                  
$$